Regional Weather Roundup
Issued by NWS

Home | Current Version | Previous Version | Text Only | Print | Product List | Glossary On
Versions: 1 2 3 4 5 6 7 8 9 10 11 12 13 14 15 16 17 18 19 20 21 22 23 24 25 26 27 28 29 30 31 32 33 34 35 36 37 38 39 40 41 42 43 44 45 46 47 48 49 50
000
ASUS44 KLUB 280010
RWRTX
WEST TEXAS WEATHER ROUNDUP
NATIONAL WEATHER SERVICE LUBBOCK TX
700 PM CDT THU AUG 27 2015

NOTE: "FAIR" INDICATES FEW OR NO CLOUDS BELOW 12,000 FEET WITH NO
SIGNIFICANT WEATHER AND/OR OBSTRUCTIONS TO VISIBILITY.

TXZ004-006>008-010-012-014-016-OKZ002-280100-
TEXAS PANHANDLE/OKLAHOMA PANHANDLE

CITY           SKY/WX    TMP DP  RH WIND       PRES   REMARKS
AMARILLO       FAIR      86  55  34 S15       30.02F
BORGER         FAIR      90  58  33 S14G21    29.96F
CANADIAN       FAIR      91  57  31 S16G23    29.92S
DALHART        PTSUNNY   93  50  23 S17       29.99F
DUMAS          FAIR      87  57  35 S20G28    29.98F
GUYMON         FAIR      90  55  30 S15       29.90S
HEREFORD       PTSUNNY   79  64  60 MISG      30.08R
PAMPA          FAIR      88  55  31 S9        29.99F
PERRYTON       FAIR      93  54  26 S18G26    29.93F
$$

TXZ026-029-035-045-048-280100-
SOUTHERN PANHANDLE/SOUTH PLAINS/ROLLING PLAINS

CITY           SKY/WX    TMP DP  RH WIND       PRES   REMARKS
CHILDRESS      FAIR      94  52  24 S9        29.94F
SEMINOLE       FAIR      93  42  17 S8        30.05F
LUBBOCK        PTSUNNY   92  44  19 S16       30.03F
PLAINVIEW      FAIR      91  33  12 S15G23    30.02F
SNYDER         FAIR      95  51  22 S9        30.01F
$$

TXZ052-054-060>062-072-078-127-140-154-169-280100-
PERMIAN BASIN/CONCHO VALLEY/BIG COUNTRY/EDWARDS PLATEAU

CITY           SKY/WX    TMP DP  RH WIND       PRES   REMARKS
ABILENE        FAIR      93  60  33 SE16      29.99F
BIG SPRING     FAIR      93  51  24 SE8       30.03F
BRADY          MOSUNNY   97  59  28 SE9       30.00S HX  96
BROWNWOOD      FAIR      90  66  45 NE6       29.99S
JUNCTION       FAIR      95  59  30 SE7       29.99F
MIDLAND        FAIR      95  48  20 S6        30.03F
ODESSA         FAIR      95  46  18 SE9       30.04F
SAN ANGELO     PTSUNNY   97  54  23 E9        29.97F HX  95
SONORA         FAIR      93  55  27 SE6       30.05S
SWEETWATER     FAIR      95  49  20 SE10      30.03F
WINK           FAIR      99  46  16 SE13G24   29.98F HX  95
$$

TXZ055-058-074-075-080-082-280100-
FAR WEST/SOUTHWEST MOUNTAINS/TRANS PECOS

CITY           SKY/WX    TMP DP  RH WIND       PRES   REMARKS
ALPINE         FAIR      91  48  23 SE9       30.17F
DRYDEN           N/A     96  55  25 E12G20    29.98F
EL PASO        PTSUNNY   91  52  26 NW5       30.04F
FORT STOCKTON  FAIR      95  47  19 SE10      30.01F
GUADALUPE PASS PTSUNNY   88  48  25 W22G33    30.19F
MARFA          FAIR      88  48  25 SE3       30.16F
PECOS          FAIR      97  47  18 NE8       29.97F
$$

TXZ014-016-019-021>030-083-280100
TEXAS TECH WEST TEXAS MESONET/TEXAS PANHANDLE/NORTHERN SOUTH PLAINS

CITY           SKY/WX    TMP DP  RH WIND       PRES   REMARKS
ABERNATHY 5ENE   N/A     90  48  23 S13       30.04F
AMARILLO 9NNE    N/A     86  57  37 S13       29.98F
AMARILLO 7SSE    N/A     83  60  44 S8        30.03S
AMHERST 1NE      N/A     86  52  31 SW13      30.07R
BOOTLEG 11WNW    N/A     83  54  35 SW25      30.08F
CANADIAN 6E      N/A     91  59  34 S15       29.92S
CAPROCK CYN SP   N/A     90  51  26 S9        29.99F
CHILDRESS 2NNE   N/A     95  50  21 S8        29.94F
CLARENDON 2WSW   N/A     91  49  23 S14       29.98F
CLAUDE 12SW      N/A     89  51  27 S15       30.02F
DIMMITT 2NE      N/A     75  61  62 S13       30.10R
FLOYDADA 2NNE    N/A     91  47  22 S16       30.03F
FRIONA 2NE       N/A     82  57  41 S14       30.07S
GOODLETT 3W      N/A     98  48  18 S15       29.92F
HART 3N          N/A     79  58  48 W12       30.08R
HEREFORD 2NW     N/A     78  59  51 SE12      30.06F
MCLEAN 1E        N/A     88  54  31 SE14      29.97F
MEMPHIS 1NE      N/A     94  52  24 S6        29.94F
MULESHOE 2SSW    N/A     77  62  60 W1        30.07F
OLTON 6S         N/A     89  41  18 S16       30.04S
PALO DURO SP     N/A     88  50  27 S15       30.03F
PAMPA 2E         N/A     87  53  32 S9        29.99F
PLAINVIEW 1S     N/A     92  49  22 S16       30.03S
SILVERTON 7ESE   N/A     87  52  30 S10       30.03F
TULIA 2ENE       N/A     87  50  27 S12       30.03S
TURKEY 2WSW      N/A     91  54  28 S6        29.97F
UMBARGER 3NNE    N/A     83  58  41 S16       30.05R
$$

TXZ033>036-039>041-045>048-280100
TEXAS TECH WEST TEXAS MESONET/SOUTH PLAINS

CITY           SKY/WX    TMP DP  RH WIND       PRES   REMARKS
AIKEN 3WSW       N/A     91  52  27 S13       30.05S
ANDREWS 2NE      N/A     92  40  16 SE9       30.04F
ANTON 6SSW       N/A     88  46  23 S12       30.04F
BROWNFIELD 2S    N/A     89  43  20 S10       30.05S
DENVR CTY 7WNW   N/A     89  43  19 SE9       30.05F
GAIL 2ESE        N/A     92  58  31 SW3       30.00F
LAMESA 2SE       N/A     93  49  22 SE8       30.04F
LEVELLAND 4S     N/A     87  48  25 SE9       30.05S
LUBBOCK 3WNW     N/A     91  44  19 S13       30.04F
MORTON 1ENE      N/A     83  54  35 W9        30.07S
ODONNELL 1N      N/A     92  43  18 S8        30.05F
PLAINS 3N        N/A     91  45  20 S9        30.06F
RALLS 1SE        N/A     91  51  25 S13       30.04F
REESE CENTER     N/A     90  41  18 S15       30.04F
SEAGRAVES 1SW    N/A     90  46  21 SE9       30.05S
SEMINOLE 2NNE    N/A     92  42  17 S9        30.04F
SLATON 2NE       N/A     92  47  21 S13       30.04F
SNYDER 3E        N/A     95  49  21 SE9       30.00F
SUNDOWN 8SW      N/A     89  47  23 SE14      30.05F
TAHOKA 3NNE      N/A     91  47  22 S13       30.04F
WOLFFORTH 6SSW   N/A     89  50  26 S10       30.05S
$$

TXZ031-032-036>038-042>044-280100-
TEXAS TECH WEST TEXAS MESONET/ROLLING PLAINS

CITY           SKY/WX    TMP DP  RH WIND       PRES   REMARKS
ASPERMONT 3NE    N/A     97  50  20 SE8       29.96F
FLUVANNA 3WNW    N/A     93  51  23 SW7       30.02S
GRAHAM 5SSW      N/A     92  47  21 S14       30.03F
GUTHRIE 10WSW    N/A     97  47  17 S13       29.96F
HASKELL 1NW      N/A     96  51  22 SE3       29.96S
JAYTON 1SSE      N/A     97  49  19 S10       29.97F
KNOX CITY 3NW    N/A     98  50  19 SE14      29.95S HX  95
LK A HENRY 1NW   N/A     95  54  24 SE6       29.98F
NORTHFIELD 1S    N/A     94  51  23 S8        29.95S
ODELL 4ENE       N/A     96  58  27 SE14      29.94S HX  95
PADUCAH 10SW     N/A     94  48  20 S9        29.95F
POST 1NE         N/A     93  50  22 S10       30.01F
RRING SPRGS 3N   N/A     92  52  25 S8        30.00F
SEYMOUR 3NW      N/A     96  54  24 SE10      29.94F
SPUR 1W          N/A     96  46  18 SW12      29.97F
WEINERT 2NNE     N/A     96  59  29 SE13      29.96S HX  96
WHITE RVR 6NE    N/A     94  51  23 S12       30.01F
$$

TXZ052-054-060>062-072-078-127-140-154-169-280100-
TEXAS TECH WEST TEXAS MESONET/PERMIAN BASIN/
CONCHO VALLEY/BIG COUNTRY/EDWARDS PLATEAU

CITY           SKY/WX    TMP DP  RH WIND       PRES   REMARKS
JUNCTION 1SSW    N/A     95  61  31 S8        29.99F HX  95
MERTZON 3NNE     N/A     96  51  21 E6        30.00F
SAN ANGELO 7NW   N/A     96  50  21 E9        29.99S
STRLNG CT 4WSW   N/A     97  53  22 SE10      30.01S
ST LAWRNCE 5SW   N/A     94  50  22 S8        30.02F
SWEETWATR 11SW   N/A     93  53  25 S10       30.03S
WALL 1E          N/A     97  52  21 SE5       29.99S
$$

TXZ055-058-074-075-080-082-280100-
TEXAS TECH WEST TEXAS MESONET/FAR WEST/SOUTHWEST MOUNTAINS/TRANS PECOS

CITY           SKY/WX    TMP DP  RH WIND       PRES   REMARKS
PRSMN GAP BBNP   N/A     97  43  15 E9        30.00S
$$



USA.gov is the U.S. government's official web portal to all federal, state and local government web resources and services.